When you browse on this site, cookies collect data to enhance your experience and personalize the content and advertising you see.
Visit our Privacy Policy to learn more. By continuing to use the site, you agree to this use of cookies and data.

Hourly Weather Willoughby

Today, 9 August, Sunday

Time Temperature Precipitation Wind Pressure Humidity
00:00 +19°C° 0 mm 2 mps 746 mmHg 75%
01:00 +19°C° 0 mm 3 mps 746 mmHg 75%
02:00 +18°C° 0 mm 3 mps 746 mmHg 78%
03:00 +18°C° 0 mm 3 mps 746 mmHg 82%
04:00 +18°C° 0 mm 3 mps 746 mmHg 85%
05:00 +19°C° 0 mm 3 mps 746 mmHg 83%
06:00 +20°C° 0 mm 3 mps 746 mmHg 80%
07:00 +20°C° 0 mm 3 mps 746 mmHg 77%
08:00 +24°C° 0 mm 3 mps 746 mmHg 70%
09:00 +26°C° 0 mm 4 mps 746 mmHg 62%
10:00 +28°C° 0 mm 4 mps 746 mmHg 55%
11:00 +30°C° 0 mm 4 mps 746 mmHg 53%
12:00 +32°C° 0 mm 4 mps 746 mmHg 51%
13:00 +33°C° 0 mm 4 mps 746 mmHg 48%
14:00 +33°C° 0 mm 4 mps 746 mmHg 51%
15:00 +33°C° 0 mm 4 mps 745 mmHg 53%
16:00 +33°C° 0 mm 4 mps 745 mmHg 55%
17:00 +30°C° 0 mm 4 mps 745 mmHg 63%
18:00 +29°C° 0 mm 3 mps 745 mmHg 71%
19:00 +27°C° 0 mm 3 mps 744 mmHg 79%
20:00 +27°C° 0 mm 3 mps 745 mmHg 82%
21:00 +26°C° 0 mm 3 mps 745 mmHg 86%
22:00 +25°C° 0 mm 3 mps 745 mmHg 90%
23:00 +24°C° 0 mm 3 mps 745 mmHg 90%

Tomorrow, 10 August, Monday

Time Temperature Precipitation Wind Pressure Humidity
00:00 +24°C° 0 mm 3 mps 745 mmHg 90%
01:00 +24°C° 0 mm 2 mps 745 mmHg 91%
02:00 +24°C° 0 mm 2 mps 744 mmHg 91%
03:00 +23°C° 0 mm 2 mps 744 mmHg 92%
04:00 +23°C° 0 mm 2 mps 744 mmHg 92%
05:00 +23°C° 0 mm 2 mps 744 mmHg 91%
06:00 +24°C° 0 mm 2 mps 745 mmHg 90%
07:00 +24°C° 0 mm 2 mps 745 mmHg 88%
08:00 +26°C° 0 mm 3 mps 744 mmHg 79%
09:00 +28°C° 0 mm 3 mps 744 mmHg 70%
10:00 +30°C° 0 mm 3 mps 744 mmHg 61%
11:00 +31°C° 0 mm 3 mps 744 mmHg 56%
12:00 +33°C° 0 mm 3 mps 744 mmHg 51%
13:00 +34°C° 0 mm 4 mps 744 mmHg 47%
14:00 +34°C° 0 mm 3 mps 743 mmHg 45%
15:00 +34°C° 0 mm 3 mps 743 mmHg 44%
16:00 +34°C° 0 mm 3 mps 742 mmHg 43%
17:00 +31°C° 0 mm 3 mps 742 mmHg 51%
18:00 +30°C° 0 mm 2 mps 742 mmHg 58%
19:00 +28°C° 0 mm 2 mps 742 mmHg 66%
20:00 +27°C° 0 mm 2 mps 742 mmHg 68%
21:00 +26°C° 0 mm 2 mps 742 mmHg 69%
22:00 +25°C° 0 mm 2 mps 742 mmHg 71%
23:00 +24°C° 0 mm 2 mps 741 mmHg 73%

Day after tomorrow, 11 August, Tuesday

Time Temperature Precipitation Wind Pressure Humidity
00:00 +24°C° 0 mm 3 mps 741 mmHg 75%
01:00 +22°C° 0 mm 4 mps 741 mmHg 77%
02:00 +22°C° 0 mm 4 mps 741 mmHg 76%
03:00 +22°C° 0 mm 4 mps 741 mmHg 74%
04:00 +22°C° 0 mm 4 mps 741 mmHg 73%
05:00 +23°C° 0.3 mm 4 mps 741 mmHg 75%
06:00 +23°C° 0.3 mm 4 mps 741 mmHg 76%
07:00 +23°C° 0.3 mm 4 mps 741 mmHg 78%
08:00 +26°C° 0.9 mm 3 mps 741 mmHg 78%
09:00 +27°C° 0.9 mm 3 mps 741 mmHg 79%
10:00 +29°C° 0.9 mm 3 mps 742 mmHg 79%
11:00 +30°C° 0.3 mm 3 mps 741 mmHg 71%
12:00 +33°C° 0.3 mm 3 mps 741 mmHg 62%
13:00 +35°C° 0.3 mm 3 mps 741 mmHg 54%
14:00 +34°C° 0.5 mm 3 mps 741 mmHg 61%
15:00 +33°C° 0.5 mm 3 mps 741 mmHg 68%
16:00 +31°C° 0.5 mm 3 mps 741 mmHg 75%
17:00 +30°C° 0.2 mm 2 mps 741 mmHg 79%
18:00 +29°C° 0.2 mm 2 mps 741 mmHg 82%
19:00 +28°C° 0.2 mm 1 mps 741 mmHg 86%
20:00 +27°C° 0 mm 1 mps 741 mmHg 87%
21:00 +26°C° 0 mm 1 mps 741 mmHg 89%
22:00 +25°C° 0 mm 1 mps 741 mmHg 91%
23:00 +25°C° 0.5 mm 1 mps 741 mmHg 92%

12 August, Wednesday

Time Temperature Precipitation Wind Pressure Humidity
00:00 +25°C° 0.5 mm 1 mps 741 mmHg 92%
01:00 +25°C° 0.5 mm 2 mps 741 mmHg 93%
02:00 +24°C° 0.7 mm 2 mps 741 mmHg 93%
03:00 +24°C° 0.7 mm 2 mps 741 mmHg 94%
04:00 +24°C° 0.7 mm 2 mps 741 mmHg 94%
05:00 +24°C° 0.3 mm 2 mps 741 mmHg 94%
06:00 +24°C° 0.3 mm 2 mps 741 mmHg 94%
07:00 +24°C° 0.3 mm 3 mps 742 mmHg 94%
08:00 +25°C° 1.8 mm 2 mps 742 mmHg 92%
09:00 +26°C° 1.8 mm 2 mps 742 mmHg 90%
10:00 +27°C° 1.8 mm 2 mps 742 mmHg 88%
11:00 +27°C° 1.1 mm 3 mps 742 mmHg 88%
12:00 +26°C° 1.1 mm 4 mps 742 mmHg 89%
13:00 +25°C° 1.1 mm 5 mps 741 mmHg 89%
14:00 +26°C° 0.1 mm 5 mps 741 mmHg 87%
15:00 +26°C° 0.1 mm 5 mps 741 mmHg 86%
16:00 +26°C° 0.1 mm 5 mps 741 mmHg 84%
17:00 +25°C° 0.6 mm 4 mps 741 mmHg 87%
18:00 +23°C° 0.6 mm 4 mps 742 mmHg 90%
19:00 +24°C° 0.6 mm 3 mps 742 mmHg 94%
20:00 +22°C° 0.1 mm 4 mps 742 mmHg 92%
21:00 +22°C° 0.1 mm 4 mps 742 mmHg 91%
22:00 +21°C° 0.1 mm 5 mps 742 mmHg 90%
23:00 +21°C° 0 mm 4 mps 742 mmHg 90%

13 August, Thursday

Time Temperature Precipitation Wind Pressure Humidity
00:00 +21°C° 0 mm 4 mps 742 mmHg 90%
01:00 +21°C° 0 mm 3 mps 742 mmHg 90%
02:00 +21°C° 0 mm 4 mps 742 mmHg 90%
03:00 +21°C° 0 mm 5 mps 743 mmHg 90%
04:00 +21°C° 0 mm 5 mps 743 mmHg 90%
05:00 +21°C° 0 mm 5 mps 743 mmHg 89%
06:00 +21°C° 0 mm 6 mps 743 mmHg 88%
07:00 +21°C° 0 mm 6 mps 744 mmHg 88%
08:00 +22°C° 0 mm 5 mps 744 mmHg 83%
09:00 +23°C° 0 mm 5 mps 744 mmHg 79%
10:00 +25°C° 0 mm 5 mps 744 mmHg 74%
11:00 +26°C° 0 mm 5 mps 744 mmHg 71%
12:00 +27°C° 0 mm 6 mps 744 mmHg 68%
13:00 +29°C° 0 mm 6 mps 744 mmHg 64%
14:00 +28°C° 0 mm 6 mps 744 mmHg 64%
15:00 +28°C° 0 mm 6 mps 744 mmHg 64%
16:00 +28°C° 0 mm 6 mps 744 mmHg 64%
17:00 +27°C° 0 mm 5 mps 744 mmHg 66%
18:00 +26°C° 0 mm 4 mps 744 mmHg 68%
19:00 +25°C° 0 mm 3 mps 744 mmHg 69%
20:00 +23°C° 0 mm 4 mps 744 mmHg 72%
21:00 +22°C° 0 mm 4 mps 745 mmHg 75%
22:00 +22°C° 0 mm 4 mps 745 mmHg 78%
23:00 +21°C° 0 mm 3 mps 745 mmHg 82%

14 August, Friday

Time Temperature Precipitation Wind Pressure Humidity
00:00 +21°C° 0 mm 3 mps 745 mmHg 86%
01:00 +21°C° 0 mm 3 mps 744 mmHg 90%
02:00 +20°C° 0 mm 3 mps 744 mmHg 91%
03:00 +20°C° 0 mm 4 mps 745 mmHg 91%
04:00 +20°C° 0 mm 4 mps 745 mmHg 91%
05:00 +20°C° 0 mm 4 mps 745 mmHg 90%
06:00 +21°C° 0 mm 4 mps 745 mmHg 88%
07:00 +21°C° 0 mm 4 mps 745 mmHg 87%
08:00 +23°C° 0 mm 5 mps 745 mmHg 79%
09:00 +26°C° 0 mm 5 mps 746 mmHg 70%
10:00 +28°C° 0 mm 5 mps 746 mmHg 62%
11:00 +29°C° 0 mm 6 mps 746 mmHg 59%
12:00 +30°C° 0 mm 6 mps 745 mmHg 56%
13:00 +32°C° 0 mm 6 mps 745 mmHg 52%
14:00 +32°C° 0 mm 6 mps 745 mmHg 53%
15:00 +30°C° 0 mm 6 mps 744 mmHg 55%
16:00 +30°C° 0 mm 6 mps 744 mmHg 56%
17:00 +28°C° 0 mm 6 mps 744 mmHg 60%
18:00 +27°C° 0 mm 6 mps 744 mmHg 64%
19:00 +26°C° 0 mm 5 mps 744 mmHg 68%
20:00 +25°C° 0 mm 5 mps 745 mmHg 72%
21:00 +25°C° 0 mm 5 mps 745 mmHg 75%
22:00 +23°C° 0 mm 5 mps 745 mmHg 78%
23:00 +23°C° 0 mm 5 mps 745 mmHg 81%
Show more